Home   Weather   Fürstenwalde/Spree   Past weeks

Flag for Germany Past Weather in Fürstenwalde/Spree, Brandenburg, Germany — Yesterday and Last 2 Weeks

Now
36 °F

Partly sunny.


Feels Like: 33 °F
Forecast: 25 / 33 °F
Wind: 3 mph from South

Location: Berlin-Schoenefeld

Current Time: Jan 21, 2017 at 4:38:40 pm

Latest Report: Jan 21, 2017 at 4:20 pm


Visibility: N/A

Pressure: 30.48 "Hg

Humidity: 87%

Dew Point: 32 °F

Location of Fürstenwalde/SpreeLocation

Past Weather in Fürstenwalde/Spree — Graph

°F

Fürstenwalde/Spree Temperature Yesterday

Maximum temperature yesterday: 34 °F (at 11:50 am)
Minimum temperature yesterday: 27 °F (at 12:20 am)
Average temperature yesterday: 31 °F

High & Low Weather Summary for the Past Weeks

 TemperatureHumidityPressure
High39 °F (Jan 12, 11:20 am)100% (Jan 7, 8:20 pm)30.77 "Hg (Jan 7, 8:20 pm)
Low10 °F (Jan 7, 1:20 am)56% (Jan 17, 3:20 pm)29.03 "Hg (Jan 13, 6:50 am)
Average29 °F89%30.17 "Hg
* Reported Jan 6 3:20 pm — Jan 21 3:20 pm, Fürstenwalde/Spree, Weather by CustomWeather, © 2017

Note: Actual official high and low records may vary slightly from our data, if they occured in-between our weather recording intervals... More about our weather records

Advertising

Fürstenwalde/Spree Weather History for the Previous 24 Hours

Scroll right to see more
 ConditionsComfort  
Time TempWeatherWind HumidityBarometerVisibility
3:20 pm
Sat, Jan 21
36 °FPartly sunny.3 mph87%30.48 "HgN/A
2:50 pm36 °FPartly sunny.3 mph93%30.48 "HgN/A
2:20 pm36 °FPartly sunny.3 mph93%30.48 "HgN/A
1:50 pm36 °FPartly sunny.3 mph93%30.48 "Hg6 mi
1:20 pm36 °FPartly sunny.5 mph93%30.48 "Hg4 mi
12:50 pm36 °FPartly sunny.5 mph93%30.48 "Hg4 mi
12:20 pm36 °FPartly sunny.5 mph93%30.51 "Hg4 mi
11:50 am36 °FPartly sunny.5 mph93%30.51 "Hg4 mi
11:20 am36 °FPartly sunny.2 mph93%30.51 "Hg4 mi
10:50 am36 °FFog.6 mph93%30.51 "Hg3 mi
10:20 am36 °FFog.6 mph93%30.51 "Hg2 mi
9:50 am34 °FFog.5 mph100%30.51 "Hg2 mi
9:20 am34 °FFog.6 mph100%30.51 "Hg2 mi
8:50 am34 °FFog.5 mph100%30.51 "Hg2 mi
8:20 am34 °FFog.6 mph93%30.51 "Hg1 mi
7:50 am34 °FFog.5 mph100%30.51 "Hg2 mi
7:20 am34 °FFog.3 mph93%30.48 "Hg2 mi
6:50 am34 °FFog.3 mph100%30.48 "Hg2 mi
6:20 am34 °FDrizzle. Fog.3 mph93%30.48 "Hg1 mi
5:50 am34 °FDrizzle. Fog.2 mph93%30.48 "Hg2 mi
5:20 am34 °FFog.5 mph93%30.48 "Hg3 mi
4:50 am32 °FIce fog.3 mph100%30.48 "Hg3 mi
4:20 am34 °FFog.3 mph93%30.48 "Hg3 mi
3:50 am34 °FFog.7 mph93%30.48 "Hg3 mi
3:20 am34 °FFog.3 mph93%30.51 "Hg2 mi
2:50 am34 °FFog.3 mph93%30.51 "Hg3 mi
2:20 am34 °FFog.2 mph93%30.51 "Hg2 mi
1:50 am34 °FFog.2 mph93%30.51 "Hg2 mi
1:20 am32 °FIce fog.6 mph100%30.51 "Hg1 mi
12:50 am32 °FIce fog.5 mph100%30.51 "Hg1 mi
12:20 am32 °FIce fog.5 mph100%30.51 "Hg1 mi
11:50 pm
Fri, Jan 20
32 °FDrizzle. Ice fog.2 mph100%30.54 "Hg1 mi
11:20 pm34 °FDrizzle. Fog.3 mph93%30.54 "Hg1 mi
10:50 pm34 °FDrizzle. Fog.1 mph93%30.54 "Hg2 mi
10:20 pm34 °FFog.5 mph93%30.54 "Hg2 mi
9:50 pm34 °FDrizzle. Fog.5 mph93%30.54 "Hg2 mi
9:20 pm34 °FDrizzle. Fog.5 mph93%30.54 "Hg2 mi
8:50 pm34 °FDrizzle. Fog.6 mph93%30.54 "Hg2 mi
8:20 pm34 °FDrizzle. Fog.3 mph93%30.54 "Hg2 mi
7:50 pm34 °FFog.6 mph93%30.54 "Hg3 mi
7:20 pm34 °FLow clouds.6 mph93%30.54 "Hg4 mi
6:50 pm34 °FLow clouds.5 mph93%30.54 "Hg4 mi
6:20 pm34 °FPassing clouds.5 mph93%30.54 "Hg4 mi
5:50 pm34 °FFog.5 mph93%30.54 "Hg3 mi
5:20 pm34 °FFog.5 mph87%30.54 "Hg3 mi
4:50 pm34 °FFog.5 mph93%30.54 "Hg3 mi
4:20 pm34 °FFog.7 mph87%30.54 "Hg3 mi
Weather by CustomWeather, © 2017

See weather overviewHow to use our weather pages